DW8052 Weather Reports


time (UTC)temp
F
wind
direction
speed
knots
gust
knots
rain 1hr
in
rain 24hr
in
rain mn
in
humidity
%
barometer
mb
20260503235715 64 337 5.2 7.8 0.00 0.00 0.00 80 1017.8
20260503235215 65 321 6.1 8.7 0.00 0.00 0.00 80 1017.9
20260503234715 65 324 7.8 8.7 0.00 0.00 0.00 80 1017.8
20260503234214 65 298 7.0 11.3 0.00 0.00 0.00 81 1017.7
20260503233715 65 324 9.6 13.9 0.00 0.00 0.00 80 1018.0
20260503232215 65 298 10.4 13.0 0.00 0.00 0.00 81 1018.1
20260503231715 65 290 10.4 13.0 0.00 0.00 0.00 81 1017.9
20260503230715 65 301 7.8 10.4 0.00 0.00 0.00 82 1017.7
20260503230215 65 301 6.1 10.4 0.00 0.00 0.00 82 1017.5
20260503225715 65 300 6.1 8.7 0.00 0.00 0.00 82 1017.6
20260503225214 65 312 7.0 7.8 0.00 0.00 0.00 82 1017.3
20260503224715 65 327 6.1 7.8 0.00 0.00 0.00 82 1017.4
20260503224215 65 325 5.2 7.8 0.00 0.00 0.00 82 1017.2
20260503223715 65 332 5.2 7.0 0.00 0.00 0.00 83 1017.1
20260503223214 65 335 4.3 6.1 0.00 0.00 0.00 83 1016.9
20260503222715 65 328 3.5 5.2 0.00 0.00 0.00 84 1017.1
20260503222215 65 315 5.2 6.1 0.00 0.00 0.00 84 1016.9
20260503221714 65 320 3.5 5.2 0.00 0.00 0.00 84 1016.8
20260503220714 64 301 5.2 7.8 0.00 0.00 0.00 83 1016.8
20260503220215 64 312 4.3 8.7 0.00 0.00 0.00 84 1016.9
20260503215214 64 303 7.8 11.3 0.00 0.00 0.00 83 1017.0
20260503214714 65 299 7.0 10.4 0.00 0.00 0.00 83 1016.9
20260503214214 65 313 4.3 7.0 0.00 0.00 0.00 84 1016.7
20260503213715 65 320 5.2 7.0 0.00 0.00 0.00 83 1016.7
20260503213215 65 323 6.1 7.8 0.00 0.00 0.00 84 1016.7
20260503212715 65 325 6.1 7.0 0.00 0.00 0.00 84 1016.6
20260503212214 64 328 4.3 6.1 0.00 0.00 0.00 83 1016.7
20260503211714 64 323 5.2 7.0 0.00 0.00 0.00 83 1016.5
20260503211214 64 330 5.2 7.0 0.00 0.00 0.00 83 1016.5
20260503210214 64 327 4.3 6.1 0.00 0.00 0.00 83 1016.4
20260503205214 64 315 4.3 5.2 0.00 0.00 0.00 83 1016.3
20260503204715 64 321 5.2 6.1 0.00 0.00 0.00 83 1016.4
20260503204214 64 325 5.2 6.1 0.00 0.00 0.00 83 1016.4
20260503203715 64 322 4.3 6.1 0.00 0.00 0.00 83 1016.4
20260503203214 64 319 3.5 6.1 0.00 0.00 0.00 82 1016.1
20260503202714 64 329 4.3 6.1 0.00 0.00 0.00 82 1016.1
20260503202214 64 323 6.1 7.0 0.00 0.00 0.00 82 1016.0
20260503201214 65 326 4.3 6.1 0.00 0.00 0.00 82 1016.0
20260503200715 65 326 4.3 5.2 0.00 0.00 0.00 82 1015.9
20260503195714 65 329 4.3 5.2 0.00 0.00 0.00 82 1015.9
20260503194714 65 351 4.3 4.3 0.00 0.00 0.00 82 1015.8
20260503194214 66 349 2.6 5.2 0.00 0.00 0.00 82 1015.7
20260503193714 66 350 2.6 5.2 0.00 0.00 0.00 82 1015.7
20260503193215 66 346 4.3 5.2 0.00 0.00 0.00 82 1015.7
20260503192715 66 343 4.3 7.0 0.00 0.00 0.00 82 1015.7
20260503192214 66 354 4.3 7.0 0.00 0.00 0.00 81 1015.6
20260503191714 66 0 5.2 7.8 0.00 0.00 0.00 81 1015.7
20260503191215 66 0 4.3 5.2 0.00 0.00 0.00 81 1015.5
20260503190715 66 356 4.3 6.1 0.00 0.00 0.00 81 1015.5
20260503190214 66 350 5.2 7.0 0.00 0.00 0.00 80 1015.6
20260503185715 66 351 4.3 7.0 0.00 0.00 0.00 80 1015.7
20260503185214 66 358 5.2 7.8 0.00 0.00 0.00 80 1015.5
20260503184714 66 3 5.2 7.0 0.00 0.00 0.00 80 1015.7
20260503184215 66 358 5.2 7.0 0.00 0.00 0.00 80 1015.9
20260503183715 66 0 4.3 7.0 0.00 0.00 0.00 80 1015.7
20260503183215 66 358 5.2 7.0 0.00 0.00 0.00 80 1015.7
20260503182714 66 0 5.2 7.0 0.00 0.00 0.00 80 1015.9
20260503181714 66 5 6.1 7.8 0.00 0.00 0.00 80 1015.5
20260503181215 66 11 5.2 7.8 0.00 0.00 0.00 80 1015.8
20260503180715 66 2 4.3 6.1 0.00 0.00 0.00 80 1015.8
20260503180215 66 2 5.2 7.8 0.00 0.00 0.00 80 1015.7
20260503175715 66 3 6.1 7.8 0.00 0.00 0.00 80 1015.7
20260503175214 66 4 6.1 7.8 0.00 0.00 0.00 80 1015.7
20260503174714 66 9 6.1 7.8 0.00 0.00 0.00 79 1015.7
20260503174214 66 8 5.2 8.7 0.00 0.00 0.00 79 1015.8
20260503173214 66 9 7.0 8.7 0.00 0.00 0.00 80 1015.7
20260503172714 66 7 6.1 7.8 0.00 0.00 0.00 80 1015.8
20260503172214 66 7 5.2 6.1 0.00 0.00 0.00 80 1015.9
20260503171215 66 0 3.5 4.3 0.00 0.00 0.00 80 1016.2
20260503170715 66 0 3.5 4.3 0.00 0.00 0.00 80 1016.2
20260503170214 66 1 2.6 5.2 0.00 0.00 0.00 80 1016.1
20260503160214 67 2 6.1 8.7 0.00 0.00 0.00 76 1016.6
20260503150713 67 0 5.2 7.0 0.00 0.00 0.00 80 1017.0
20260503140214 67 330 5.2 6.1 0.00 0.00 0.00 79 1017.7
20260503131214 68 5 6.1 11.3 0.00 0.00 0.00 80 1017.9
20260503130713 69 356 7.0 10.4 0.00 0.00 0.00 80 1018.0
20260503130213 69 356 6.1 8.7 0.00 0.00 0.00 80 1018.0
20260503120214 69 4 6.1 12.2 0.00 0.00 0.00 81 1018.7
20260503110714 70 10 11.3 15.6 0.00 0.00 0.00 78 1018.5
20260503110213 70 11 10.4 20.0 0.00 0.00 0.00 78 1018.6
20260503090213 70 16 13.0 21.7 0.00 0.00 0.00 77 1018.1
20260503081213 71 23 13.9 19.1 0.00 0.00 0.00 74 1018.1
20260503080713 71 18 11.3 14.8 0.00 0.00 0.00 74 1018.2
20260503080213 71 26 14.8 19.1 0.00 0.00 0.00 73 1018.3
20260503072213 71 21 8.7 15.6 0.00 0.00 0.00 72 1018.1
20260503071713 71 24 12.2 18.2 0.00 0.00 0.00 72 1018.0
20260503071213 71 27 13.9 20.9 0.00 0.00 0.00 72 1018.2
20260503070713 71 25 13.0 19.1 0.00 0.00 0.00 71 1018.0
20260503070213 71 25 11.3 19.1 0.00 0.00 0.00 71 1018.1
20260503060212 71 33 20.9 22.6 0.00 0.00 0.00 70 1018.2
20260503054713 71 37 20.9 24.3 0.00 0.00 0.00 71 1018.2
20260503054213 71 35 20.9 22.6 0.00 0.00 0.00 71 1018.3
20260503053713 71 33 21.7 24.3 0.00 0.00 0.00 70 1018.3
20260503053213 71 36 20.9 25.2 0.00 0.00 0.00 71 1018.3
20260503052713 71 36 20.9 24.3 0.00 0.00 0.00 70 1018.4
20260503052213 71 37 21.7 24.3 0.00 0.00 0.00 70 1018.4
20260503051713 72 40 19.1 22.6 0.00 0.00 0.00 69 1018.5
20260503051213 71 32 19.1 22.6 0.00 0.00 0.00 69 1018.4
20260503050713 71 39 20.9 22.6 0.00 0.00 0.00 69 1018.5
20260503045713 71 39 20.0 22.6 0.00 0.00 0.00 69 1018.5
20260503044712 71 34 19.1 21.7 0.00 0.00 0.00 69 1018.7
20260503044213 71 38 19.1 22.6 0.00 0.00 0.00 68 1018.6
20260503043712 71 36 18.2 21.7 0.00 0.00 0.00 68 1018.6
20260503043213 71 39 16.5 20.9 0.00 0.00 0.00 67 1018.7
20260503042713 71 40 18.2 21.7 0.00 0.00 0.00 67 1018.8
20260503042213 71 39 18.2 20.9 0.00 0.00 0.00 66 1018.8
20260503041713 71 40 19.1 20.9 0.00 0.00 0.00 66 1018.9
20260503041213 71 38 17.4 20.0 0.00 0.00 0.00 66 1018.8
20260503040712 71 39 17.4 20.0 0.00 0.00 0.00 66 1019.1
20260503040212 71 44 16.5 20.0 0.00 0.00 0.00 66 1019.1
20260503035713 71 40 18.2 20.9 0.00 0.00 0.00 66 1019.1
20260503035213 71 45 17.4 20.0 0.00 0.00 0.00 66 1019.1
20260503034713 71 42 18.2 21.7 0.00 0.00 0.00 65 1018.9
20260503034213 72 41 17.4 20.9 0.00 0.00 0.00 65 1019.1
20260503033712 72 33 15.6 18.2 0.00 0.00 0.00 62 1019.0
20260503033213 72 46 12.2 17.4 0.00 0.00 0.00 62 1019.1
20260503032712 72 21 13.0 17.4 0.00 0.00 0.00 61 1019.2
20260503032212 72 38 13.0 17.4 0.00 0.00 0.00 61 1019.3
20260503031713 72 31 13.9 18.2 0.00 0.00 0.00 63 1019.4
20260503030212 72 37 13.9 20.9 0.00 0.00 0.00 63 1019.7
20260503025712 72 19 14.8 20.0 0.00 0.00 0.00 63 1019.7
20260503025213 72 39 16.5 20.0 0.00 0.00 0.00 63 1019.9
20260503024713 72 32 15.6 21.7 0.00 0.00 0.00 62 1019.9
20260503024212 73 22 16.5 20.9 0.00 0.00 0.00 59 1019.8
20260503023713 73 33 15.6 22.6 0.00 0.00 0.00 58 1019.9
20260503022712 73 34 10.4 18.2 0.00 0.00 0.00 55 1020.1
20260503022212 72 38 14.8 18.2 0.00 0.00 0.00 56 1020.1
20260503021713 72 33 13.9 19.1 0.00 0.00 0.00 55 1020.3
20260503021212 72 36 14.8 20.9 0.00 0.00 0.00 56 1020.4
20260503020713 72 28 17.4 20.9 0.00 0.00 0.00 56 1020.4
20260503020212 72 36 13.9 20.0 0.00 0.00 0.00 56 1020.7
20260503015713 72 27 14.8 19.1 0.00 0.00 0.00 56 1020.8
20260503015212 73 24 14.8 19.1 0.00 0.00 0.00 56 1020.9
20260503014712 73 22 12.2 19.1 0.00 0.00 0.00 55 1020.9
20260503014213 72 22 15.6 19.1 0.00 0.00 0.00 54 1021.1
20260503013712 73 28 13.9 20.0 0.00 0.00 0.00 55 1021.0
20260503013212 73 28 14.8 20.9 0.00 0.00 0.00 56 1021.1
20260503012713 73 22 11.3 18.2 0.00 0.00 0.00 55 1021.3
20260503011213 72 24 11.3 19.1 0.00 0.00 0.00 59 1021.5
20260503010213 72 17 12.2 20.0 0.00 0.00 0.00 60 1021.9
20260503005712 71 24 14.8 20.9 0.00 0.00 0.00 60 1021.8
20260503005212 71 29 13.0 19.1 0.00 0.00 0.00 60 1022.0
20260503004713 71 30 15.6 20.9 0.00 0.00 0.00 60 1021.8
20260503004212 71 29 14.8 22.6 0.00 0.00 0.00 60 1021.9
20260503003712 71 19 12.2 20.0 0.00 0.00 0.00 61 1022.0
20260503003213 72 13 10.4 17.4 0.00 0.00 0.00 60 1022.1
20260503002712 72 18 15.6 21.7 0.00 0.00 0.00 60 1022.0
20260503002212 72 23 13.9 20.9 0.00 0.00 0.00 61 1022.3
20260503001713 71 26 11.3 20.0 0.00 0.00 0.00 61 1022.3
20260503000713 71 2 11.3 17.4 0.00 0.00 0.00 63 1022.1